Location: Valdosta
(30.8330°N, 83.2790°W)
Time: 12:06:02
(UTC-04:00)

Daily predictions for brighter satellites

Satellite Brightness Start Highest point End
(mag) Time Altitude Azimuth Time Altitude Azimuth Time Altitude Azimuth
Meteor 1-26 Rocket 4.4 20:48:35 10° N 20:54:25 65° E 21:00:15 10° SSE
In-Cosmos 22 Rocket 4.3 20:49:44 10° S 20:55:32 80° E 21:01:21 10° N
Cosmos 1356 Rocket 3.9 20:54:53 10° SSE 20:58:50 41° E 21:02:51 10° NNE
Coronas F rocket 2.2 20:58:38 10° SSE 21:00:58 28° E 21:03:18 10° NNE
Cosmos 1340 Rocket 2.7 20:59:40 10° S 21:03:37 79° E 21:07:38 10° N
CENTAUR R/B 3.5 20:55:59 10° NNW 21:03:40 48° NE 21:11:38 10° SE
Cosmos 389 Rocket 3.9 21:04:50 10° NNW 21:08:07 40° W 21:11:24 10° SSW
Cosmos 2056 Rocket 3.5 21:04:38 10° S 21:09:46 65° ESE 21:14:51 10° NNE
ALOS 2.3 21:05:08 10° SSE 21:09:46 73° ENE 21:14:27 10° N
Cosmos 1371 Rocket 4.2 21:06:44 10° SSW 21:12:04 84° WNW 21:17:22 10° NNE
Cosmos 1733 Rocket 3.4 21:08:25 10° SSE 21:12:37 44° E 21:16:48 10° NNE
Cosmos 1892 2.7 21:11:45 10° S 21:15:31 65° E 21:19:19 10° NNE
NOSS 2-2 (D) 4.2 21:12:34 10° SW 21:16:32 57° WNW 21:20:53 10° NNE
Cosmos 1782 4.3 21:13:58 10° NNE 21:17:02 21° ENE 21:19:18 14° ESE
Cosmos 2084 4.0 21:13:53 10° S 21:17:16 28° ESE 21:20:37 10° NE
Atlas Centaur 2 0.9 21:14:03 10° W 21:17:41 85° S 21:20:59 12° E
Cosmos 2184 Rocket 4.0 21:13:18 10° S 21:19:21 63° E 21:25:26 10° NNE
Cosmos 1939 Rocket 4.3 21:18:45 13° ESE 21:20:53 20° ENE 21:23:47 10° NNE
H-2A R/B 2.6 21:19:54 10° S 21:23:36 86° W 21:27:19 10° NNW
ISS -3.4 21:27:01 10° SW 21:30:14 65° SE 21:33:28 10° NE
SL-27 R/B 3.6 21:31:02 10° N 21:34:14 29° ENE 21:35:38 22° ESE
H-2A R/B 3.0 21:38:18 21° ESE 21:40:19 31° ENE 21:44:05 10° N
Intelsat 3F5 C 4.0 21:37:27 10° WSW 21:40:40 61° S 21:41:52 31° ESE
Orbus 7S 4.2 21:38:25 10° W 21:44:16 46° SSW 21:45:27 29° SE
Envisat 3.5 21:42:57 21° SE 21:45:52 42° ENE 21:50:38 10° N
USA 186 3.4 21:44:16 10° SSW 21:46:58 32° W 21:49:51 10° NNW
ATLAS 5 CENTAUR R/B 2.5 21:42:32 10° NNW 21:48:42 71° ENE 21:52:58 23° SE
SEDSat Delta rocket 3.6 21:46:52 10° SW 21:50:43 31° SSE 21:51:23 30° SE
Cosmos 2074 Rocket 4.5 21:45:19 10° SSW 21:51:32 64° W 21:57:46 10° N
PSLV R/B 4.3 21:51:08 10° NW 21:54:22 39° NNE 21:55:41 27° ENE
ERBS 2.3 21:51:13 10° NNW 21:54:40 67° NE 21:55:38 42° ESE
COSMOS 2406 3.2 21:49:44 10° NNW 21:55:30 84° ENE 21:59:15 22° SSE
GPS 2-05 Rocket1 3.4 21:54:35 10° W 21:58:16 58° NNW 22:00:35 20° ENE
CZ-4 DEB 3.8 21:57:07 17° SSW 21:59:13 43° W 22:02:16 10° NNW
OAO 3 Rocket 3.4 21:55:16 10° SW 22:00:02 49° SSE 22:02:07 30° E
Cosmos 2278 Rocket 2.1 21:55:54 10° S 22:01:29 65° ESE 22:07:06 10° NNE
H-2A R/B 4.3 22:03:39 10° ENE 22:04:07 10° ENE 22:04:34 10° ENE
Meteosat 1 Rocket2 4.2 21:58:34 10° W 22:04:24 74° S 22:10:23 22° E
Abrixas rocket 3.7 22:01:38 10° WNW 22:04:38 29° SW 22:05:28 26° SSW
Cosmos 1825 2.2 22:04:36 46° SE 22:05:19 55° E 22:09:04 10° NNE
Okean 2 Rocket 3.7 22:05:29 35° E 22:05:42 35° E 22:09:43 10° NNE
Cosmos 1844 4.0 22:00:02 10° SSW 22:05:44 72° WNW 22:11:32 10° NNE
YAOGAN 6 4.1 22:06:45 22° ENE 22:06:45 22° ENE 22:08:58 10° NNE
ERS-1 Rocket 3.1 22:02:30 19° S 22:06:11 76° WSW 22:11:14 10° NNW
Cosmos 1844 Rocket 3.7 22:01:48 10° SW 22:07:15 49° WNW 22:12:44 10° N
Cosmos 1408 2.6 22:06:51 52° SE 22:07:16 57° E 22:10:52 10° NNE
OAO 1 Rocket 4.3 22:02:38 10° WSW 22:07:56 75° SSE 22:11:19 23° ENE
Cosmos 407 Rocket 3.5 22:04:23 10° N 22:09:40 67° ENE 22:11:47 36° SE
Cosmos 1452 Rocket 3.6 22:07:30 10° SSW 22:12:45 76° WNW 22:18:01 10° NNE
Cosmos 1674 Rocket 3.8 22:09:10 10° NNW 22:13:36 69° W 22:15:57 27° S
Nadezhda 3 Rocket 4.0 22:07:18 10° N 22:13:36 63° E 22:16:37 32° SSE
Sich 1 Rocket 4.2 22:09:32 10° SSW 22:14:02 58° W 22:18:33 10° N
MetOp-A 4.4 22:13:36 37° ESE 22:15:10 49° ENE 22:20:19 10° N
EO 1 Delta rocket 4.2 22:12:03 10° N 22:17:54 80° W 22:21:48 16° SSW
SPOT 1/Viking Rocket 4.3 22:18:19 32° E 22:19:00 33° ENE 22:23:38 10° N
Cosmos 1862 3.5 22:19:16 31° SSW 22:21:07 72° W 22:25:12 10° N
Cosmos 1782 Rocket 3.4 22:21:11 52° SSE 22:22:12 73° E 22:26:39 10° N
Cosmos 1190 Rocket 4.1 22:18:07 10° NNW 22:23:17 69° WSW 22:25:32 34° S
Okean 3 3.7 22:19:40 10° N 22:23:41 49° ENE 22:23:41 49° ENE
Meteor 2-13 Rocket 4.4 22:23:56 36° SSE 22:26:27 63° E 22:32:32 10° NNE
Cosmos 2082 Rocket 4.0 22:23:07 10° NNE 22:26:32 16° ENE 22:27:07 16° ENE
USA 234 3.4 22:20:33 10° NE 22:26:48 48° SE 22:33:01 10° SSW
Cosmos 2341 Rocket 4.0 22:25:01 18° S 22:29:51 86° W 22:36:09 10° N
CZ-4B R/B 3.3 22:27:01 10° NNE 22:31:53 61° ESE 22:32:07 60° ESE
Cosmos 2297 3.6 22:34:15 51° SSE 22:35:21 62° ESE 22:41:00 10° NNE
Cosmos 1184 Rocket 3.9 22:39:00 45° NW 22:39:00 45° NW 22:41:43 10° N
Cosmos 1975 Rocket 3.1 22:39:01 10° N 22:42:49 64° NNE 22:42:49 64° NNE
NOAA 11 4.3 22:45:02 53° E 22:45:17 54° ENE 22:50:39 10° N
Meteor 1-27 Rocket 4.1 22:41:54 10° NNW 22:47:19 56° W 22:49:19 36° SSW
SL-8 Rocket 3.9 22:45:50 52° SSE 22:47:24 76° E 22:53:39 10° N
Timation 2 Rocket 4.3 22:43:30 10° N 22:49:11 44° ENE 22:49:32 44° ENE
Cosmos 1606 4.0 22:46:41 10° NNW 22:50:18 36° W 22:50:39 35° WSW
Cosmos 676 Rocket 4.3 22:48:34 10° NNW 22:53:41 61° WSW 22:54:26 54° SW
CENTAUR R/B 4.3 22:47:07 10° NW 22:54:15 35° WSW 22:59:04 20° SSW
Cosmos 1378 Rocket 4.4 22:52:28 10° NNW 22:56:33 43° W 22:56:50 43° WSW
Cosmos 1954 Rocket 4.0 22:53:58 10° NNW 22:59:10 72° WSW 22:59:23 71° SW
Atlas Centaur 2 3.5 23:02:43 10° W 23:03:38 17° W 23:03:38 17° W
ISS 0.2 23:05:52 10° NW 23:06:57 11° NNW 23:08:02 10° NNW
Terra 3.3 23:09:02 27° NE 23:09:02 27° NE 23:11:43 10° N
SPOT 5 4.1 23:06:18 34° SW 23:07:27 39° W 23:12:26 10° NNW
Cosmos 1741 Rocket 4.4 23:05:56 10° N 23:10:12 54° NNE 23:10:12 54° NNE
H-2A R/B 4.4 23:15:27 16° WSW 23:16:19 16° W 23:19:02 10° WNW
Cosmos 864 Rocket 4.3 23:18:36 88° NNW 23:18:36 88° NNW 23:24:43 10° N
ARGOS 3.5 23:23:56 59° W 23:23:56 59° W 23:28:51 10° NNW
Cosmos 2366 rocket 4.1 23:26:53 69° WSW 23:27:17 71° W 23:33:35 10° N
H-2A R/B 2.9 23:44:16 50° NNW 23:44:16 50° NNW 23:48:11 10° NNW
Cosmos 1833 Rocket 3.6 23:46:11 10° NNW 23:49:59 43° N 23:49:59 43° N
